Regional Weather Roundup
Issued by NWS

Home | Current Version | Previous Version | Graphics & Text | Print | Product List | Glossary On
Versions: 1 2 3 4 5 6 7 8 9 10 11 12 13 14 15 16 17 18 19 20 21 22 23 24 25 26 27 28 29 30 31 32 33 34 35 36 37 38 39 40 41 42 43 44 45 46
000
ASUS43 KDMX 210007
RWRIA

WEATHER ROUNDUP FOR IOWA
NATIONAL WEATHER SERVICE DES MOINES IA
700 PM CDT SAT SEP 20 2014

NOTE: "FAIR" INDICATES FEW OR NO CLOUDS BELOW 12,000 FEET WITH NO
SIGNIFICANT WEATHER AND/OR OBSTRUCTIONS TO VISIBILITY.

* - THESE STATIONS ARE NOT NWS STATIONS...THUS NOT UNDER NWS
QUALITY CONTROL.  THEY ALSO DO NOT REPORT WEATHER SUCH
AS PRECIPITATION OR FOG.

IAZ001>003-012>014-020>022-031>034-043>046-210100-
   NORTHWEST IOWA

CITY           SKY/WX    TMP DP  RH WIND       PRES   REMARKS
CARROLL *      CLEAR     75  61  60 W9        29.88S
CHEROKEE *     PTCLDY    76  56  49 W12G17    29.87S
DENISON *      CLEAR     75  57  53 W6        29.88F
LE MARS *      MOCLDY    77  55  47 W6G13     29.89S
ORANGE CITY *  CLEAR     79  46  31 NW22G29   29.89R
SHELDON *      CLEAR     77  52  41 NW14G25   29.87R
SIOUX CITY     PTCLDY    80  56  43 NW10      29.89S HX  80
6HR MIN TEMP:  79; 6HR MAX TEMP:  85;

SPENCER        CLOUDY    71  54  54 N22G51    29.89R SQUALL
6HR MIN TEMP:  78; 6HR MAX TEMP:  83;

STORM LAKE *   CLEAR     75  61  60 W12       29.88S
$$

IAZ055>058-069>071-079>083-090>094-210100-
   SOUTHWEST IOWA

CITY           SKY/WX    TMP DP  RH WIND       PRES   REMARKS
ATLANTIC *     CLEAR     77  59  53 W6        29.91S
AUDUBON *      CLEAR     73  57  56 SW5       29.92S
CLARINDA *     CLEAR     81  64  57 NW6       29.93S HX  82
COUNCIL BLFS * CLEAR     77  61  57 W5        29.93S
CRESTON *      CLEAR     77  66  69 W9        29.92R
HARLAN  *      CLEAR     73  61  64 W7        29.95S
LAMONI         CLEAR     76  68  76 W6        29.91R
6HR MIN TEMP:  74; 6HR MAX TEMP:  81;

RED OAK *      CLEAR     77  61  57 NW5       29.93S
SHENANDOAH *   CLEAR     79  61  53 NW5       29.93R HX  80
$$

IAZ047>049-059>061-072>074-084-210100-
   CENTRAL IOWA

CITY           SKY/WX    TMP DP  RH WIND       PRES   REMARKS
AMES           CLEAR     77  58  51 W12       29.84S
6HR MIN TEMP:  77; 6HR MAX TEMP:  84;

ANKENY *       CLEAR     77  59  53 W7G13     29.85S
CHARITON *     CLEAR     77  70  78 W5        29.88S
DES MOINES     PTCLDY    78  58  49 W9        29.86R
6HR MIN TEMP:  78; 6HR MAX TEMP:  85;

GRINNELL*      CLEAR     74  60  61 W7        29.84S
KNOXVILLE *    CLEAR     77  63  61 W9        29.85R
MARSHALLTOWN   CLEAR     73  59  61 W8        29.81F
6HR MIN TEMP:  73; 6HR MAX TEMP:  83;

PELLA *        CLEAR     77  65  67 W5        29.86S
PERRY *          N/A     76  57  50 W8        29.87S
$$

IAZ004>006-015-016-023>025-035-036-210100-
   NORTH CENTRAL IOWA

CITY           SKY/WX    TMP DP  RH WIND       PRES   REMARKS
ALGONA *       PTCLDY    77  55  47 W12G17    29.81S
CLARION *        N/A     75  55  50 W8        29.82S
ESTHERVILLE    PTCLDY    67  53  61 N21G32    29.87R
6HR MIN TEMP:  67; 6HR MAX TEMP:  80;

FORT DODGE *   CLEAR     75  55  50 W10       29.84F
MASON CITY     PTCLDY    77  55  46 W15G24    29.78F
6HR MIN TEMP:  76; 6HR MAX TEMP:  80;

FOREST CITY *  MOCLDY    75  55  50 SW8       29.77F
IOWA FALLS *     N/A     75  55  50 W9        29.82F
$$

IAZ007>011-017>019-026>030-037>042-050>054-066-210100-
   NORTHEAST IOWA

CITY           SKY/WX    TMP DP  RH WIND       PRES   REMARKS
CEDAR RAPIDS   CLEAR     74  65  73 SW8       29.80S
6HR MIN TEMP:  69; 6HR MAX TEMP:  79; 6HR PCP:  0.16;

CHARLES CITY * CLEAR     72  57  60 SW9       29.76F
CLINTON *      CLEAR     72  64  78 SW8       29.82F
DECORAH *      CLEAR     72  57  60 CALM      29.75F
DUBUQUE        CLEAR     71  66  84 SW7       29.79S
6HR MIN TEMP:  69; 6HR MAX TEMP:  78; 6HR PCP: TRACE;

MONTICELLO *   CLEAR     73  66  78 SW5       29.78F
OELWEIN *      CLEAR     72  59  64 SW7       29.79F
WATERLOO       CLEAR     74  57  55 W7        29.78F
6HR MIN TEMP:  74; 6HR MAX TEMP:  82;

$$

IAZ064-065-067-068-078-210100-
   EAST CENTRAL IOWA

CITY           SKY/WX    TMP DP  RH WIND       PRES   REMARKS
DAVENPORT      PTCLDY    72  66  81 SW7       29.82S
6HR MIN TEMP:  72; 6HR MAX TEMP:  79; 6HR PCP: TRACE;

IOWA CITY      CLEAR     76  65  68 SW7       29.82S
6HR MIN TEMP:  73; 6HR MAX TEMP:  80; 6HR PCP:  0.01;

MT. PLEASANT * CLEAR     76  66  71 SW10      29.85S
MUSCATINE *    CLEAR     77  66  69 SW8       29.82S
QUAD CITIES    LGT RAIN  73  68  84 W8        29.81S
6HR MIN TEMP:  73; 6HR MAX TEMP:  79; 6HR PCP:  0.02;

$$

IAZ062-063-075>077-085>089-095>099-210100-
   SOUTHEAST IOWA

CITY           SKY/WX    TMP DP  RH WIND       PRES   REMARKS
BURLINGTON     CLEAR     75  68  78 W7        29.85R
6HR MIN TEMP:  75; 6HR MAX TEMP:  81; 6HR PCP: TRACE;

FAIRFIELD *    CLEAR     75  68  78 SW8       29.85S
FORT MADISON * CLEAR     77  68  73 SW8       29.87R
KEOKUK *       CLOUDY    77  70  78 SW10      29.86R
OSKALOOSA *      N/A     75  68  78 SW9       29.85S
CENTERVILLE *  CLEAR     75  70  83 SW6       29.90S
OTTUMWA        CLEAR     76  68  76 SW7       29.85S
6HR MIN TEMP:  76; 6HR MAX TEMP:  81;

WASHINGTON *   PTCLDY    75  70  83 SW7       29.83F
$$

ABBREVIATIONS USED IN REMARKS
   TC - TEMPERATURES IN CELSIUS
  WCI - WIND CHILL INDEX
   HX - HEAT INDEX
  VSB - VISIBILITY
$$




USA.gov is the U.S. government's official web portal to all federal, state and local government web resources and services.